Flag for Israel Weather past 2 weeks in Rishon LeZion, Israel

Now
59 °F

Clear.


Feels Like: 59 °F
Forecast: 58 / 68 °F
Wind: 1 mph from North

Location: Ben Gurion International Airport

Current Time: Mar 30, 2015 at 3:45:55 AM

Latest Report: Mar 30, 2015 at 2:50 AM


Visibility: 10 mi

Pressure: 29.89 "Hg

Humidity: 82%

Dew point: 54 °F

Location of Rishon LeZionLocation

Historic Weather in Rishon LeZion — Graph

°F

Rishon LeZion temperature yesterday

Maximum temperature yesterday: 77 °F (at 10:50 AM)
Minimum temperature yesterday: 63 °F (at 4:20 AM)
Average temperature yesterday: 68 °F

Past Weeks' High & Low Weather Summary

 TemperatureHumidityPressure
High90 °F (Mar 27, 2:20 PM)88% (Mar 15, 2:20 AM)30.18 "Hg (Mar 15, 2:20 AM)
Low48 °F (Mar 23, 5:50 AM)17% (Mar 27, 2:20 PM)29.62 "Hg (Mar 28, 4:50 AM)
Average63 °F59%30.01 "Hg
* Reported Mar 15 1:20 AM — Mar 30 2:20 AM, Rishon LeZion, Weather by CustomWeather, © 2015

Note: Actual official high and low records may vary slightly from our data, if they occured in-between our weather recording intervals... More about our weather records

Advertising

Rishon LeZion weather history for previous 24 hours

 ConditionsComfort  
Time TempWeatherWind HumidityBarometerVisibility
2:20 AM
Mon, Mar 30
61 °FClear.3 mph83%29.92 "Hg10 mi
1:50 AM61 °FClear.3 mph83%29.92 "Hg10 mi
1:20 AM61 °FClear.7 mph83%29.92 "Hg10 mi
12:50 AM63 °FClear.7 mph83%29.92 "Hg10 mi
12:20 AM63 °FClear.5 mph83%29.92 "Hg10 mi
11:50 PM
Sun, Mar 29
63 °FClear.2 mph77%29.92 "Hg10 mi
11:20 PM64 °FPassing clouds.2 mph78%29.95 "HgN/A
10:50 PM64 °FPassing clouds.3 mph73%29.95 "HgN/A
10:20 PM64 °FPassing clouds.5 mph73%29.92 "HgN/A
9:50 PM64 °FPassing clouds.10 mph78%29.92 "HgN/A
9:20 PM64 °FPassing clouds.13 mph78%29.92 "HgN/A
8:50 PM64 °FPassing clouds.13 mph83%29.92 "HgN/A
8:20 PM64 °FPassing clouds.10 mph83%29.89 "HgN/A
7:50 PM66 °FScattered clouds.13 mph73%29.86 "HgN/A
7:20 PM66 °FSunny.9 mph64%29.86 "Hg10 mi
6:50 PM68 °FSunny.9 mph60%29.83 "Hg10 mi
6:20 PM70 °FSunny.8 mph53%29.83 "Hg10 mi
5:50 PM72 °FSunny.10 mph50%29.83 "Hg10 mi
5:20 PM72 °FSunny.14 mph50%29.83 "Hg10 mi
4:50 PM73 °FSunny.13 mph44%29.80 "Hg10 mi
4:20 PM75 °FSunny.7 mph41%29.80 "Hg10 mi
3:50 PM73 °FSunny.13 mph44%29.80 "Hg10 mi
3:20 PM73 °FSunny.13 mph47%29.80 "Hg10 mi
2:50 PM73 °FSunny.13 mph50%29.80 "Hg10 mi
2:20 PM75 °FSunny.13 mph47%29.80 "Hg10 mi
1:50 PM75 °FSunny.15 mph47%29.80 "Hg10 mi
1:20 PM75 °FPassing clouds.12 mph47%29.80 "HgN/A
12:50 PM73 °FSunny.14 mph53%29.80 "Hg10 mi
12:20 PM77 °FSunny.10 mph42%29.80 "Hg10 mi
11:50 AM75 °FSunny.9 mph44%29.80 "Hg10 mi
11:20 AM77 °FClear.6 mph44%29.80 "Hg6 mi
10:50 AM77 °FClear.1 mph47%29.80 "Hg6 mi
10:20 AM75 °FClear.2 mph50%29.80 "Hg6 mi
9:50 AM73 °FClear.2 mph53%29.80 "Hg6 mi
9:20 AM70 °FSunny.2 mph60%29.80 "Hg10 mi
8:50 AM70 °FSunny.1 mph60%29.80 "Hg10 mi
8:20 AM66 °FSunny.1 mph68%29.77 "Hg10 mi
7:50 AM64 °FClear.1 mph68%29.77 "Hg6 mi
7:20 AM63 °FClear.1 mph73%29.77 "Hg10 mi
6:50 AM63 °FClear.2 mph73%29.77 "Hg10 mi
6:20 AM63 °FClear.2 mph73%29.77 "Hg10 mi
5:50 AM63 °FPassing clouds.3 mph77%29.77 "HgN/A
5:20 AM63 °FPassing clouds.3 mph77%29.77 "HgN/A
4:50 AM63 °FPassing clouds.3 mph77%29.77 "HgN/A
4:20 AM63 °FPassing clouds.3 mph77%29.80 "HgN/A
3:50 AM64 °FClear.1 mph73%29.80 "Hg10 mi
3:20 AM64 °FClear.5 mph73%29.80 "Hg10 mi
Weather by CustomWeather, © 2015

See weather overviewHow to use our weather pages